Theta_e
287 286 285 285 285 286 284 285 282 284 285 289 291 292 293 295 293 293 292 290 289 287 284 281 280 280 279 279 279 279 279 278 277 279 278 278 279 279 279 280 280 281 280 280
279 285 285 282 285 285 285 285 285 285 285 291 293 292 292 293 294 293 292 291 290 288 285 282 280 279 279 277 277 278 277 276 277 278 278 278 278 278 279 279 279 280 278 279
271 281 280 273 280 283 284 286 285 281 286 290 289 291 291 292 293 292 292 293 290 288 285 282 280 279 277 276 277 276 276 276 276 277 277 277 277 277 277 278 278 278 277 277
271 273 265 279 286 286 284 286 287 288 289 290 291 292 293 294 292 293 293 292 290 287 283 280 277 276 276 276 276 276 275 274 275 276 276 276 276 276 277 277 277 277 276 276
272 271 277 280 282 281 281 281 286 286 288 288 289 288 288 290 290 291 291 292 287 284 279 275 275 275 275 274 274 274 273 273 274 275 275 275 275 275 275 276 276 277 276 275
271 268 265 279 284 287 286 277 286 287 286 286 286 281 285 282 282 279 280 279 278 276 275 274 274 274 274 273 273 272 272 272 273 274 274 273 273 274 275 276 275 276 275 275
276 274 275 282 285 287 274 278 283 285 285 286 285 285 280 279 276 276 275 273 273 272 271 272 273 274 273 272 270 271 272 272 272 273 273 273 273 274 274 274 274 272 273 273
277 274 271 284 282 280 284 286 284 284 284 284 283 280 279 277 275 274 273 272 271 270 270 271 273 273 271 269 270 270 271 271 270 271 273 273 272 272 271 270 269 268 269 270
278 277 282 283 283 284 284 284 284 282 282 281 281 279 277 275 273 273 271 270 270 269 269 270 272 271 268 268 269 269 269 269 269 270 270 271 269 269 268 268 268 268 269 267
278 283 284 284 285 283 284 283 282 281 280 279 279 278 276 274 273 271 270 269 269 268 267 267 269 269 268 268 268 268 268 268 268 267 268 267 270 270 267 266 265 267 266 265
279 282 283 284 284 281 282 280 278 276 277 278 278 277 275 273 272 270 269 268 268 267 266 265 265 265 266 266 267 267 267 268 268 267 264 265 267 265 267 267 266 260 259 262
279 283 282 284 275 276 277 277 276 275 273 274 275 274 273 271 270 269 268 268 267 266 265 264 264 262 262 263 265 266 266 266 265 265 264 264 262 262 268 268 269 269 270 266
284 285 280 273 270 272 272 272 273 272 273 272 272 272 271 269 268 268 267 267 266 265 264 263 262 260 260 260 261 263 263 263 261 263 261 259 257 256 254 260 268 267 268 268
284 274 274 270 275 268 268 270 271 270 271 272 271 270 269 267 267 266 266 266 265 264 262 262 261 259 259 257 257 257 255 258 256 256 255 254 254 254 253 252 252 253 261 265
277 276 273 269 269 268 267 268 268 268 268 268 269 268 267 266 265 265 264 264 262 261 260 260 258 254 251 250 252 252 254 254 253 253 251 253 253 253 252 252 251 250 250 257
274 271 269 271 270 269 268 267 267 266 267 266 266 266 266 265 262 261 261 260 260 259 258 257 255 252 249 249 250 249 250 252 252 251 251 251 252 252 251 251 250 249 249 249
269 267 267 267 268 267 267 268 268 267 266 265 265 264 262 261 260 259 259 260 259 258 256 256 254 249 247 248 250 251 251 249 252 250 250 250 250 250 250 249 249 248 248 251
268 265 269 268 268 266 266 267 266 265 264 263 262 261 260 260 260 258 256 251 251 251 251 252 252 250 246 247 248 250 251 250 249 249 250 250 249 250 249 249 248 248 249 249
260 262 260 262 265 266 266 264 263 263 262 261 260 259 258 257 257 254 252 251 251 251 252 250 260 251 249 247 249 250 250 250 250 249 249 250 247 246 248 248 248 247 248 249
257 258 258 258 260 261 260 257 259 258 256 258 257 257 255 254 254 253 251 253 253 255 252 254 254 251 251 251 260 251 250 250 250 249 249 249 249 249 250 251 250 250 248 249
255 255 255 258 256 256 258 259 258 256 255 257 258 258 257 252 253 252 251 252 254 250 249 253 254 253 252 252 251 249 249 249 250 251 250 251 250 251 251 250 251 251 250 249
253 254 254 254 255 252 254 256 256 255 254 253 252 254 254 252 250 248 249 254 250 255 252 252 252 253 254 257 252 252 252 252 252 251 251 250 250 251 251 251 251 251 251 250
254 254 254 255 255 254 251 253 254 255 255 255 254 255 257 256 255 254 255 255 252 252 254 254 255 257 259 254 253 253 253 253 253 253 253 252 253 252 252 252 251 251 250 250
251 252 251 251 254 254 253 248 251 251 252 251 251 252 257 256 253 257 252 253 256 258 255 255 259 262 258 253 253 254 254 254 254 254 254 254 252 252 251 252 252 251 251 251
252 250 251 251 253 254 252 251 250 250 250 251 251 252 253 254 256 257 257 254 257 254 254 258 261 262 257 255 255 256 256 255 255 254 254 254 254 252 253 252 252 252 251 250
252 254 254 254 255 256 256 254 255 254 253 253 252 255 255 256 253 253 252 254 254 255 254 254 257 258 257 256 256 256 257 256 256 256 255 255 254 253 253 253 253 252 252 251
249 252 251 251 251 252 258 256 257 256 256 257 257 257 257 256 256 256 255 254 254 254 253 254 256 256 256 256 256 257 257 257 257 256 256 255 254 254 254 254 253 253 252 251
Wind_Speed
7 3 3 4 5 9 13 11 14 12 20 11 10 12 15 13 6 9 11 11 13 11 8 8 8 7 6 6 5 4 5 6 5 6 5 6 6 5 5 5 5 6 8 8
2 4 4 7 8 7 10 11 17 19 28 9 10 8 7 8 9 12 10 14 15 13 12 12 11 8 6 6 5 5 6 6 6 6 5 6 5 4 5 5 6 8 9 8
4 4 3 9 10 15 15 13 12 21 27 14 15 14 12 13 13 13 9 15 14 17 15 12 12 12 9 7 5 5 7 6 5 6 7 6 5 4 5 6 6 8 9 8
4 4 4 5 10 9 10 10 13 17 17 14 16 15 18 11 10 14 12 10 12 11 10 11 11 11 10 8 6 6 7 7 6 7 8 6 6 6 6 5 5 6 7 8
5 6 12 14 2 4 6 22 13 16 20 15 12 8 14 5 7 8 6 6 6 11 14 13 12 12 11 8 8 8 7 7 7 6 6 5 7 6 5 5 4 5 7 7
2 4 11 7 9 10 6 26 11 17 20 20 16 11 13 5 6 9 11 8 13 14 14 14 11 12 11 9 8 8 6 6 6 5 4 5 7 4 4 3 4 4 7 4
12 12 9 8 9 8 7 21 3 6 6 7 5 5 2 5 7 8 10 12 11 11 11 10 9 9 10 8 7 6 6 6 5 4 5 5 6 3 3 2 3 4 3 3
6 7 19 9 7 15 14 13 9 9 9 8 5 6 6 7 8 8 9 10 9 10 9 7 8 9 10 8 6 6 6 6 5 4 5 5 3 2 2 3 3 3 4 3
11 9 6 5 8 8 3 8 6 4 4 5 6 7 9 8 9 10 9 9 8 10 9 7 6 7 8 5 6 6 5 6 5 5 5 2 1 2 2 4 4 4 4 4
7 17 21 13 10 6 7 9 6 5 5 6 6 8 8 9 9 9 9 9 9 10 9 8 6 9 8 7 6 5 6 6 5 5 4 1 3 3 4 4 3 3 3 3
9 16 14 15 10 1 3 5 4 2 4 7 7 6 9 8 9 9 9 9 9 9 8 8 8 7 6 6 5 5 5 4 5 4 2 2 3 3 2 2 3 2 2 1
12 14 8 14 4 3 4 5 6 5 2 2 2 6 7 8 8 9 10 9 9 11 10 7 7 8 5 3 2 4 5 5 2 2 2 3 3 2 2 2 3 6 8 4
17 11 9 4 5 6 4 4 2 1 2 4 3 8 10 11 8 10 9 9 9 10 9 9 8 7 4 2 2 5 5 4 2 3 3 2 1 2 1 5 4 3 6 6
14 7 6 5 6 5 5 5 5 3 3 5 7 8 9 10 11 10 9 9 9 10 9 8 7 6 3 3 5 5 5 4 3 3 2 2 2 1 1 1 1 3 6 5
13 9 3 6 6 5 4 5 6 6 6 7 7 9 10 12 11 9 9 9 9 9 7 7 7 5 2 3 5 3 3 3 2 3 2 1 0 0 1 0 1 2 3 4
6 6 6 7 7 8 8 7 7 7 7 7 9 9 9 9 10 9 8 8 10 9 7 7 5 5 4 4 5 3 3 5 2 2 2 0 0 0 1 1 2 2 2 3
7 4 7 8 10 10 12 9 8 9 9 9 8 10 11 10 9 8 7 4 3 6 7 7 7 5 5 4 4 4 4 3 3 1 2 2 2 2 2 1 2 2 3 3
3 3 6 6 11 11 11 10 9 10 9 11 10 10 11 12 11 9 8 5 5 4 4 5 6 6 4 5 4 3 3 3 3 3 3 2 3 2 2 2 3 3 4 4
3 4 3 4 7 10 11 10 9 9 10 11 11 10 8 6 9 7 8 6 6 6 6 6 11 8 6 5 5 2 3 3 3 3 3 3 1 3 3 3 4 4 3 3
4 3 4 4 5 7 9 5 8 8 6 9 9 9 8 6 8 9 7 8 6 5 5 9 7 7 7 7 8 4 4 4 4 4 3 3 3 4 4 5 5 4 4 4
3 3 4 7 5 5 7 8 10 10 7 9 11 11 10 7 7 8 6 4 6 5 5 9 7 5 4 5 5 4 4 4 3 4 4 4 4 5 5 5 5 5 4 4
4 5 4 5 5 4 5 8 8 9 9 7 6 8 9 7 6 3 3 5 3 10 6 5 5 7 6 10 5 5 5 5 4 4 4 4 4 5 5 5 5 5 5 4
6 5 6 7 8 7 4 5 7 10 11 10 9 10 10 7 7 8 7 7 5 6 6 6 9 12 10 6 5 5 5 6 6 5 5 5 6 5 5 5 5 5 5 5
5 4 4 5 7 7 8 4 6 6 6 6 5 6 8 6 4 6 2 4 9 12 7 6 9 12 12 5 5 5 5 6 7 6 6 7 5 5 5 5 6 5 5 6
6 6 6 6 7 6 6 7 5 5 6 5 6 6 6 4 4 5 6 5 8 7 5 8 11 12 7 6 7 7 7 7 7 6 6 6 7 6 7 6 7 7 6 6
8 7 7 8 5 6 5 8 7 6 6 6 4 6 6 5 3 3 3 5 6 7 5 5 7 7 7 7 8 8 7 7 7 7 7 8 7 7 8 8 7 7 7 6
3 4 4 2 3 3 6 8 8 9 9 8 7 7 7 7 7 7 6 5 5 5 5 6 6 8 7 8 8 8 7 7 8 7 7 8 7 8 8 8 7 7 6 6
Wind_Direction
267 173 230 247 239 225 233 252 255 280 272 274 290 292 297 290 256 204 203 197 204 195 181 162 153 144 128 116 94 81 87 76 60 57 52 50 35 7 20 27 38 43 50 35
254 304 307 260 249 261 273 273 273 275 268 277 278 289 291 266 252 260 220 210 214 190 180 171 158 145 132 120 118 97 83 77 65 63 51 61 33 2 30 22 21 53 52 39
248 193 323 290 194 228 241 246 257 261 270 271 278 277 259 272 277 277 261 215 207 198 182 165 151 139 138 127 110 95 96 86 74 69 64 53 41 23 27 30 27 48 49 38
193 69 256 237 179 197 214 231 237 261 276 267 262 264 263 257 251 261 261 223 202 179 148 131 126 115 112 109 113 106 93 88 76 71 63 49 47 31 26 47 29 50 49 38
155 199 276 274 187 231 197 264 240 256 265 276 278 300 276 299 319 314 299 258 148 128 126 120 118 118 112 109 113 119 114 102 85 72 81 75 64 31 10 38 24 52 54 41
131 189 232 321 176 202 207 264 199 249 265 271 278 275 282 10 36 33 40 53 101 107 110 109 112 119 126 134 135 126 114 102 92 85 86 85 70 48 3 5 35 38 48 47
225 242 258 215 142 131 189 259 224 280 277 288 254 239 124 107 67 70 74 76 72 81 98 112 120 128 127 129 126 113 111 103 91 91 100 71 67 34 284 320 41 21 78 40
205 238 260 175 169 193 234 261 253 262 268 217 215 159 158 137 123 110 107 97 93 96 97 96 118 131 129 124 120 116 114 111 108 86 84 73 59 318 335 357 39 34 26 39
184 211 243 196 185 226 200 248 266 241 220 182 195 205 174 159 142 136 130 120 111 118 113 97 98 110 117 113 119 118 126 110 109 97 78 53 63 8 38 16 37 26 29 23
245 264 270 277 264 202 221 235 242 224 201 189 221 191 174 151 148 141 141 133 130 128 129 118 98 106 115 118 113 138 134 130 113 83 107 23 49 37 66 31 37 30 27 10
256 263 274 271 255 149 246 242 269 239 230 238 231 207 164 157 149 143 139 133 139 133 131 120 114 102 105 115 137 147 123 103 102 102 95 95 76 77 52 305 115 135 250 114
239 243 203 253 170 150 195 217 248 251 251 300 247 169 129 136 133 137 140 143 137 129 126 124 121 115 109 106 147 150 122 98 72 106 65 60 57 360 86 74 48 39 15 48
243 246 208 220 192 170 188 188 151 198 196 154 21 120 127 132 136 136 136 136 134 136 127 137 122 124 133 117 99 79 106 110 106 78 92 106 63 92 39 334 5 14 9 357
237 124 280 185 249 141 124 131 125 92 83 123 130 119 125 129 127 134 139 130 128 131 129 133 130 129 108 72 95 93 92 81 115 121 108 105 122 145 133 120 301 304 336 344
210 191 184 122 118 132 111 133 143 147 131 121 129 132 136 137 139 131 119 124 126 127 130 132 138 152 140 110 121 132 149 139 126 127 121 142 332 63 136 87 253 267 332 344
139 135 152 203 188 164 161 175 170 165 154 138 136 136 137 121 118 119 126 140 145 162 162 155 151 174 162 142 138 128 113 140 117 131 140 152 129 172 310 304 302 276 298 270
129 220 208 223 198 185 190 183 179 164 149 146 146 128 126 130 126 135 140 119 117 145 162 159 171 161 158 167 170 170 150 147 147 155 171 188 188 201 213 219 245 262 257 256
85 58 162 169 182 174 177 171 152 151 160 142 140 144 147 158 159 154 150 125 90 89 172 181 157 157 166 176 182 151 144 158 171 191 188 203 216 200 222 233 247 253 270 280
95 136 143 160 162 164 157 155 157 150 146 150 150 162 152 140 149 147 137 145 166 170 228 177 176 162 178 193 173 158 160 174 187 199 192 195 219 236 230 233 248 253 257 268
148 150 155 140 114 147 151 133 134 136 137 133 125 136 145 149 142 146 157 185 195 203 167 168 175 172 184 195 179 175 181 187 195 203 191 202 216 233 235 231 234 245 250 255
177 167 148 149 148 132 138 144 140 147 151 150 157 167 165 150 147 144 144 184 232 184 157 160 172 177 175 172 173 177 183 192 199 206 212 211 223 232 230 237 238 236 243 244
167 164 167 150 149 130 138 139 133 138 149 142 130 135 141 157 155 178 229 187 227 162 158 169 184 182 178 183 179 190 198 199 209 208 218 217 219 228 232 230 233 237 238 239
164 165 157 161 162 153 118 137 149 155 161 167 164 168 174 172 169 166 213 211 183 186 178 188 190 192 188 180 185 196 201 204 211 213 215 217 224 224 225 228 232 232 237 238
138 137 139 126 120 135 161 197 156 159 157 154 160 161 159 155 201 215 150 139 168 180 191 186 194 188 182 188 201 208 209 215 219 221 221 217 219 221 225 228 237 234 238 240
147 144 134 147 166 187 153 159 136 140 144 160 177 190 199 211 170 193 186 176 184 178 179 207 196 199 194 199 202 208 213 214 220 219 223 225 228 221 231 229 234 234 235 231
166 179 180 189 189 163 158 160 180 172 168 187 203 194 196 204 178 168 172 175 180 181 190 193 202 201 203 205 209 215 214 214 217 224 224 232 229 226 233 234 234 231 233 232
153 149 139 158 240 187 168 176 177 191 192 192 203 188 189 186 197 194 187 189 193 194 198 206 200 201 202 207 213 217 219 218 214 220 223 224 223 229 231 233 232 229 227 228